When you browse on this site, cookies collect data to enhance your experience and personalize the content and advertising you see.
Visit our Privacy Policy to learn more. By continuing to use the site, you agree to this use of cookies and data.
  • In United Kingdom
  • List of Countries
  • For 7 days
  • Water Temperature
  • Satellite Maps
  • Weather Map
  • Weather Widgets
  • user-avatar
    Login

    Hourly Weather Rangpur

    Today, 25 March, Monday

    Time Temperature Precipitation Wind Pressure Humidity
    00:00 +27°C° 0 mm 2 mps 755 mmHg 44%
    01:00 +26°C° 0 mm 2 mps 755 mmHg 46%
    02:00 +26°C° 0 mm 2 mps 755 mmHg 49%
    03:00 +25°C° 0 mm 2 mps 755 mmHg 51%
    04:00 +25°C° 0 mm 2 mps 755 mmHg 53%
    05:00 +24°C° 0 mm 2 mps 755 mmHg 56%
    06:00 +23°C° 0 mm 2 mps 755 mmHg 63%
    07:00 +25°C° 0 mm 2 mps 755 mmHg 57%
    08:00 +27°C° 0 mm 3 mps 756 mmHg 50%
    09:00 +29°C° 0 mm 3 mps 756 mmHg 43%
    10:00 +31°C° 0 mm 3 mps 756 mmHg 37%
    11:00 +34°C° 0 mm 2 mps 756 mmHg 30%
    12:00 +35°C° 0 mm 1 mps 756 mmHg 26%
    13:00 +36°C° 0 mm 2 mps 755 mmHg 23%
    14:00 +37°C° 0 mm 2 mps 755 mmHg 20%
    15:00 +38°C° 0 mm 2 mps 754 mmHg 18%
    16:00 +37°C° 0 mm 2 mps 754 mmHg 18%
    17:00 +35°C° 0 mm 1 mps 753 mmHg 19%
    18:00 +35°C° 0 mm 1 mps 753 mmHg 20%
    19:00 +33°C° 0 mm 1 mps 754 mmHg 20%
    20:00 +32°C° 0 mm 1 mps 754 mmHg 21%
    21:00 +31°C° 0 mm 1 mps 754 mmHg 22%
    22:00 +30°C° 0 mm 1 mps 755 mmHg 24%
    23:00 +29°C° 0 mm 1 mps 755 mmHg 26%

    Tomorrow, 26 March, Tuesday

    Time Temperature Precipitation Wind Pressure Humidity
    00:00 +28°C° 0 mm 2 mps 755 mmHg 28%
    01:00 +28°C° 0 mm 2 mps 755 mmHg 31%
    02:00 +27°C° 0 mm 2 mps 754 mmHg 35%
    03:00 +26°C° 0 mm 3 mps 754 mmHg 39%
    04:00 +26°C° 0 mm 3 mps 754 mmHg 42%
    05:00 +26°C° 0 mm 3 mps 754 mmHg 44%
    06:00 +25°C° 0 mm 4 mps 754 mmHg 47%
    07:00 +27°C° 0 mm 4 mps 755 mmHg 44%
    08:00 +28°C° 0 mm 4 mps 756 mmHg 40%
    09:00 +30°C° 0 mm 4 mps 756 mmHg 37%
    10:00 +32°C° 0 mm 4 mps 756 mmHg 33%
    11:00 +34°C° 0 mm 4 mps 756 mmHg 29%
    12:00 +36°C° 0 mm 3 mps 756 mmHg 25%
    13:00 +37°C° 0 mm 3 mps 755 mmHg 23%
    14:00 +37°C° 0 mm 3 mps 755 mmHg 21%
    15:00 +38°C° 0 mm 3 mps 754 mmHg 19%
    16:00 +37°C° 0 mm 2 mps 754 mmHg 20%
    17:00 +37°C° 0 mm 2 mps 753 mmHg 22%
    18:00 +36°C° 0 mm 2 mps 753 mmHg 24%
    19:00 +35°C° 0 mm 2 mps 754 mmHg 25%
    20:00 +34°C° 0 mm 2 mps 755 mmHg 27%
    21:00 +32°C° 0 mm 2 mps 755 mmHg 28%
    22:00 +30°C° 0.5 mm 2 mps 756 mmHg 32%
    23:00 +29°C° 0.5 mm 2 mps 756 mmHg 36%

    Day after tomorrow, 27 March, Wednesday

    Time Temperature Precipitation Wind Pressure Humidity
    00:00 +28°C° 0.5 mm 2 mps 756 mmHg 41%
    01:00 +28°C° 0.3 mm 2 mps 756 mmHg 40%
    02:00 +28°C° 0.3 mm 1 mps 756 mmHg 40%
    03:00 +28°C° 0.3 mm 1 mps 756 mmHg 40%
    04:00 +27°C° 0.4 mm 1 mps 756 mmHg 43%
    05:00 +26°C° 0.4 mm 1 mps 756 mmHg 45%
    06:00 +25°C° 0.4 mm 2 mps 756 mmHg 47%
    07:00 +27°C° 0.1 mm 2 mps 757 mmHg 44%
    08:00 +28°C° 0.1 mm 2 mps 757 mmHg 41%
    09:00 +30°C° 0.1 mm 3 mps 758 mmHg 38%
    10:00 +31°C° 0 mm 2 mps 757 mmHg 35%
    11:00 +34°C° 0 mm 2 mps 757 mmHg 32%
    12:00 +34°C° 0 mm 1 mps 757 mmHg 28%
    13:00 +35°C° 0 mm 1 mps 756 mmHg 27%
    14:00 +35°C° 0 mm 1 mps 755 mmHg 25%
    15:00 +36°C° 0 mm 1 mps 754 mmHg 24%
    16:00 +35°C° 0 mm 1 mps 754 mmHg 25%
    17:00 +36°C° 0 mm 2 mps 754 mmHg 26%
    18:00 +35°C° 0 mm 2 mps 753 mmHg 27%
    19:00 +34°C° 0 mm 2 mps 754 mmHg 29%
    20:00 +32°C° 0 mm 2 mps 754 mmHg 31%
    21:00 +31°C° 0 mm 2 mps 755 mmHg 33%
    22:00 +31°C° 0 mm 2 mps 755 mmHg 34%
    23:00 +30°C° 0 mm 2 mps 755 mmHg 35%

    28 March, Thursday

    Time Temperature Precipitation Wind Pressure Humidity
    00:00 +29°C° 0 mm 2 mps 755 mmHg 36%
    01:00 +28°C° 0 mm 2 mps 755 mmHg 42%
    02:00 +27°C° 0 mm 2 mps 755 mmHg 47%
    03:00 +27°C° 0 mm 3 mps 755 mmHg 53%
    04:00 +26°C° 0 mm 2 mps 755 mmHg 56%
    05:00 +26°C° 0 mm 2 mps 755 mmHg 59%
    06:00 +25°C° 0 mm 2 mps 756 mmHg 63%
    07:00 +27°C° 0 mm 2 mps 756 mmHg 57%
    08:00 +28°C° 0 mm 2 mps 757 mmHg 51%
    09:00 +30°C° 0 mm 2 mps 757 mmHg 45%
    10:00 +31°C° 0 mm 2 mps 757 mmHg 41%
    11:00 +34°C° 0 mm 2 mps 756 mmHg 36%
    12:00 +35°C° 0 mm 2 mps 756 mmHg 32%
    13:00 +35°C° 0 mm 1 mps 755 mmHg 30%
    14:00 +35°C° 0 mm 1 mps 754 mmHg 27%
    15:00 +34°C° 0 mm 0 mps 753 mmHg 25%
    16:00 +36°C° 0 mm 1 mps 753 mmHg 26%
    17:00 +35°C° 0 mm 1 mps 753 mmHg 27%
    18:00 +35°C° 0 mm 1 mps 753 mmHg 28%
    19:00 +34°C° 0 mm 1 mps 754 mmHg 29%
    20:00 +33°C° 0 mm 1 mps 754 mmHg 30%
    21:00 +32°C° 0 mm 1 mps 755 mmHg 31%
    22:00 +31°C° 0 mm 1 mps 755 mmHg 32%
    23:00 +30°C° 0 mm 1 mps 754 mmHg 34%

    29 March, Friday

    Time Temperature Precipitation Wind Pressure Humidity
    00:00 +30°C° 0 mm 1 mps 754 mmHg 35%
    01:00 +29°C° 0 mm 1 mps 754 mmHg 37%
    02:00 +28°C° 0 mm 1 mps 753 mmHg 38%
    03:00 +26°C° 0 mm 0 mps 752 mmHg 39%
    04:00 +27°C° 0 mm 1 mps 753 mmHg 40%
    05:00 +27°C° 0 mm 1 mps 753 mmHg 41%
    06:00 +27°C° 0 mm 1 mps 753 mmHg 42%
    07:00 +28°C° 0 mm 1 mps 754 mmHg 40%
    08:00 +30°C° 0 mm 2 mps 754 mmHg 37%
    09:00 +31°C° 0 mm 2 mps 755 mmHg 34%
    10:00 +34°C° 0 mm 2 mps 755 mmHg 31%
    11:00 +35°C° 0 mm 2 mps 754 mmHg 28%
    12:00 +37°C° 0 mm 2 mps 754 mmHg 25%
    13:00 +37°C° 0 mm 2 mps 753 mmHg 24%
    14:00 +38°C° 0 mm 2 mps 752 mmHg 22%
    15:00 +39°C° 0 mm 3 mps 751 mmHg 20%
    16:00 +38°C° 0 mm 2 mps 751 mmHg 21%
    17:00 +37°C° 0 mm 2 mps 752 mmHg 23%
    18:00 +36°C° 0 mm 1 mps 752 mmHg 24%
    19:00 +36°C° 0 mm 2 mps 752 mmHg 25%
    20:00 +35°C° 0 mm 2 mps 753 mmHg 26%
    21:00 +34°C° 0 mm 2 mps 753 mmHg 27%
    22:00 +32°C° 0 mm 2 mps 753 mmHg 29%
    23:00 +31°C° 0 mm 2 mps 753 mmHg 31%

    30 March, Saturday

    Time Temperature Precipitation Wind Pressure Humidity
    00:00 +30°C° 0 mm 2 mps 753 mmHg 34%
    01:00 +30°C° 0 mm 2 mps 753 mmHg 35%
    02:00 +29°C° 0 mm 2 mps 753 mmHg 36%
    03:00 +29°C° 0 mm 2 mps 753 mmHg 38%
    04:00 +28°C° 0 mm 2 mps 753 mmHg 38%
    05:00 +28°C° 0 mm 3 mps 753 mmHg 39%
    06:00 +28°C° 0 mm 3 mps 753 mmHg 40%
    07:00 +29°C° 0 mm 3 mps 754 mmHg 40%
    08:00 +30°C° 0 mm 3 mps 754 mmHg 40%
    09:00 +32°C° 0 mm 4 mps 755 mmHg 40%
    10:00 +33°C° 0 mm 3 mps 755 mmHg 40%
    11:00 +33°C° 0 mm 3 mps 754 mmHg 40%
    12:00 +33°C° 0 mm 3 mps 754 mmHg 41%
    13:00 +33°C° 0 mm 3 mps 753 mmHg 41%
    14:00 +33°C° 0 mm 4 mps 753 mmHg 42%
    15:00 +33°C° 0 mm 4 mps 752 mmHg 42%
    16:00 +33°C° 0 mm 3 mps 752 mmHg 41%
    17:00 +33°C° 0 mm 3 mps 752 mmHg 40%
    18:00 +32°C° 0 mm 2 mps 752 mmHg 39%
    19:00 +31°C° 0.3 mm 2 mps 753 mmHg 41%
    20:00 +31°C° 0.3 mm 2 mps 753 mmHg 43%
    21:00 +30°C° 0.3 mm 2 mps 754 mmHg 45%
    22:00 +29°C° 0.7 mm 2 mps 754 mmHg 49%
    23:00 +28°C° 0.7 mm 2 mps 754 mmHg 53%
    Show more